Other Surface Observations
Issued by NWS

Home | Current Version | Previous Version | Text Only | Print | Product List | Glossary On
Versions: 1 2 3 4 5 6 7 8 9 10 11 12 13 14 15 16 17 18 19 20 21 22 23 24 25 26 27 28 29 30 31 32 33 34 35 36 37 38 39 40 41 42 43 44 45 46 47 48 49 50
000
SXUS52 KTAE 250918
OSOTAE
OSOTAE
North Florida/South Alabama/Southwest Georgia Weather Roundup
National Weather Service Tallahassee Florida
500 AM EDT TUE APR 25 2017

Note: "fair" indicates few or no clouds below 12,000 feet with no
significant weather and/or obstructions to visibility.

!FLZ017-115-028-034-025-251000
...North Florida...

CITY           SKY/WX    TMP DP  RH WIND       PRES   REMARKS
TALLAHASSEE    PTCLDY    53  51  93 W3        29.78R
APALACHICOLA   CLEAR     53  52  96 CALM      29.79R
PERRY          PTCLDY    57  51  79 W7        29.79R
CROSS CITY     CLOUDY    57  52  82 CALM      29.78R
JACKSONVILLE   PTCLDY    54  51  90 W7        29.73S
$$

!FLZ112-006-005-002-011-251000
...Florida Panhandle...

CITY           SKY/WX    TMP DP  RH WIND       PRES   REMARKS
MARIANNA       CLEAR     56  54  93 W3        29.77S
BONIFAY        FAIR      54  53  97 CALM      29.80S
PANAMA CITY NW FAIR      54  50  86 NW5       29.78S
TYNDALL AFB    CLEAR     56  54  93 NW3       29.79S
TYND DRONE APT FAIR      58  56  92 N3        29.79R
DE FUNIAK SPR  FAIR      53  51  92 NW3       29.80S
EGLIN AFB      CLEAR     52  49  88 N3        29.79S
DESTIN         CLEAR     59  58  96 N3        29.79S
HURLBURT       CLEAR     50  48  93 CALM      29.78S
CRESTVIEW      CLEAR     47  45  93 CALM      29.80F
PENSACOLA      CLEAR     57  51  80 CALM      29.79F
$$

!ALZ063-066-251000
...South Alabama...

CITY           SKY/WX    TMP DP  RH WIND       PRES   REMARKS
DOTHAN         CLEAR     57  55  93 NW8       29.80S
OZARK CAIRNS   CLEAR     53  50  90 SW6       29.77F
FT RUCKER HELI CLEAR     55  53  93 CALM      29.77F
RUCKER HELI 3  FAIR      56  52  89 NW3       29.78S
RUCKER HELI 2  FAIR      55  53  94 W3        29.77S
FLORALA APT    CLEAR     52  49  89 CALM      29.81S
ANDALUSIA      CLEAR     55  50  83 CALM      29.79S
TROY           CLEAR     51  51 100 CALM      29.79S
EUFALA         FAIR      57  54  89 CALM      29.76R
MOBILE         CLEAR     53  51  93 CALM      29.80S
$$

!GAZ120>161-251000
...Southwest and South Central Georgia...

CITY           SKY/WX    TMP DP  RH WIND       PRES   REMARKS
THOMASVILLE    FAIR      55  55 100 W5        29.77R
BAINBRIDGE     CLEAR     55  52  88 W5        29.77S
MOODY AFB      MOCLDY    56  52  85 SW8       29.73R
VALDOSTA       CLEAR     53  51  93 CALM      29.75R
MOULTRIE       CLEAR     55  54  94 W5        29.76R
BLAKELY        CLEAR     59  54  82 W3        29.78R
ALBANY         CLOUDY    60  57  89 W6        29.77R
TIFTON         CLOUDY    59  58  96 W5        29.74R
FITZGERALD     CLOUDY    60  58  95 W5        29.74F
CORDELE        CLOUDY    62  59  91 N3        29.75S
AMERICUS       CLOUDY    57  57 100 W3        29.76S
HOMERVILLE     CLOUDY    55  55 100 W3        29.74S
$$

!GMZ750-755-770-775-251000
...Coastal and Buoy Obs...

STATION/POSITION TIME  TEMP    WIND        PRES    VSBY  WAVE
                       AIR SEA DIR/SP/G                  HT/PER
                 (UTC) (F)     (DEG/KT/KT) (MB)    (MI)  (FT/S)
KEATON BEACH     0900   66     310/ 15/ 18 1007.9R
CEDAR KEY        0900   67     300/  6/  9 1008.6R
C TOWER          0900   67     290/ 12/ 13 1009.2R
APALACHICOLA BUO 0850   67 72  310/  8/ 10 1008.7R         3/ 6
PANAMA CITY BUOY 0850   68 73  280/  6/  8 1008.9R         3/ 5
MOBILE BUOY      0900   71 73  270/ 14/ 16 1009.0
ORANGE BCH AL BU 0850   68 73  300/  2/  4 1008.6F         1/ 4
$$




USA.gov is the U.S. government's official web portal to all federal, state and local government web resources and services.